Temperature
16 16 16 16 16 16 16 16 16 16 16 16 16 16 16 16 16 16 16 16 16 16 16 16 16 16 16 16 16 16 16 16 16 16 16 16 16 16 17 17 17 17 17
16 16 16 16 16 16 16 16 16 16 15 15 15 15 15 15 15 15 15 15 15 15 15 16 16 16 16 15 16 16 16 16 16 16 16 16 16 16 16 16 16 16 17
16 16 16 16 16 16 16 15 15 15 15 15 15 15 15 15 15 15 15 15 15 15 15 15 16 15 15 15 15 15 16 16 16 16 16 16 16 16 16 16 16 16 16
16 16 16 16 15 15 15 15 15 15 15 15 15 15 15 15 15 15 15 15 15 15 15 15 15 15 15 15 15 15 15 16 16 16 16 16 16 16 16 16 16 16 16
16 16 16 16 15 15 15 15 15 15 15 15 15 15 15 15 15 15 15 15 15 15 15 15 15 15 15 15 15 15 15 15 15 15 15 15 15 16 16 16 16 16 16
16 16 16 16 15 15 15 15 15 15 15 15 15 15 14 14 14 14 14 14 14 14 15 15 15 15 15 15 15 14 15 15 15 15 15 15 15 15 16 16 15 15 15
16 16 16 15 15 15 15 15 15 15 15 15 15 14 14 14 14 14 14 14 14 14 14 14 15 15 15 15 14 14 14 15 15 15 15 15 15 15 15 15 15 15 15
16 16 16 15 15 15 15 15 15 15 15 15 15 15 14 14 14 14 14 14 14 14 14 14 14 14 14 14 14 14 14 14 14 14 15 15 15 15 15 15 15 15 15
16 16 15 15 15 15 15 15 15 15 15 15 15 15 15 14 14 14 14 14 14 14 14 14 14 14 14 14 14 14 14 14 14 14 14 14 14 14 14 14 14 14 15
16 15 15 15 15 15 15 15 15 15 15 15 15 15 15 14 14 14 13 13 13 14 14 14 14 14 14 14 14 14 14 14 14 14 14 14 14 14 14 14 14 14 14
15 15 15 15 15 15 15 15 15 15 15 15 15 15 15 14 14 14 13 13 13 13 13 13 13 14 14 14 14 14 14 14 14 14 13 13 13 13 13 13 13 14 14
15 15 15 15 15 15 15 15 15 15 15 15 15 15 15 15 14 14 14 14 13 13 13 13 13 13 13 13 13 13 13 14 14 14 13 13 13 13 13 13 13 13 13
16 16 15 15 15 15 15 15 15 15 15 15 14 14 14 14 14 14 14 14 13 13 13 13 13 13 13 13 13 13 13 13 13 13 13 13 13 13 13 13 13 13 13
16 16 15 15 15 15 15 15 15 15 14 14 14 14 14 14 14 14 14 14 14 13 13 13 13 13 13 13 13 13 13 13 13 13 13 13 13 13 13 13 13 13 13
16 16 15 15 15 15 15 15 15 14 14 14 14 14 14 14 14 14 14 14 14 13 13 13 13 13 13 13 13 13 13 13 13 13 13 13 13 13 13 12 12 12 12
16 16 16 15 15 15 15 15 15 14 14 14 14 14 14 14 14 14 14 14 14 14 13 13 13 13 13 13 13 13 13 13 12 12 12 12 12 12 12 12 12 12 12
16 16 16 15 15 15 15 15 15 14 14 14 14 14 14 14 14 14 14 14 14 14 13 13 13 13 13 13 13 13 12 12 12 12 12 12 12 12 12 12 12 12 12
16 16 16 15 15 15 15 15 15 14 14 14 14 14 14 14 14 14 14 14 14 14 13 13 13 13 13 13 12 12 12 12 12 12 12 12 12 12 12 12 11 11 11
16 16 16 15 15 15 15 15 15 15 14 14 14 14 14 14 14 14 14 14 14 13 13 13 13 13 13 12 12 12 12 12 12 12 12 12 11 11 11 11 11 11 11
16 16 16 15 15 15 15 15 15 15 14 14 14 14 14 14 14 14 14 14 13 13 13 13 13 12 12 12 12 12 12 12 12 12 11 11 11 11 11 11 11 10 10
16 16 15 15 15 15 15 15 15 14 14 14 14 14 14 14 14 14 14 13 13 13 13 13 12 12 12 12 12 11 12 12 11 11 11 11 11 11 11 10 10 10 10
16 15 15 15 15 15 15 15 14 14 14 14 14 14 14 14 13 13 13 13 13 13 12 12 12 12 12 11 11 11 11 11 11 11 11 11 10 10 10 10 10 9 9
15 15 15 15 15 15 15 14 14 14 14 14 14 14 14 13 13 13 13 13 12 12 12 12 12 11 11 11 11 11 11 10 10 10 10 10 10 10 9 9 9 9 9
15 15 15 15 15 15 15 14 14 14 14 14 13 13 13 13 13 13 13 13 12 12 12 11 11 11 11 10 10 10 10 10 10 10 10 9 9 9 9 9 8 8 8
15 15 15 15 15 14 14 14 14 14 13 13 13 13 13 13 13 12 12 12 12 12 11 11 11 11 10 10 10 10 10 10 10 9 9 9 8 9 9 8 8 8 8
15 15 15 14 14 14 14 14 14 14 13 13 13 13 13 12 12 12 12 12 12 11 11 11 10 10 10 10 9 9 9 9 9 8 8 8 8 7 7 7 7 7 7
Wind_Speed
2 2 2 3 4 5 5 5 5 5 5 6 7 7 7 7 7 7 8 10 10 10 10 10 10 10 10 10 10 9 9 9 8 8 7 7 7 6 6 5 4 4 3
4 3 3 3 4 6 7 6 6 5 5 5 5 6 7 7 8 8 8 9 11 11 11 11 11 10 10 10 10 10 10 10 9 8 8 7 7 7 6 5 4 4 4
6 5 4 3 4 7 8 7 7 6 5 5 5 5 6 6 7 7 8 8 9 11 12 12 11 11 11 10 10 10 10 10 10 10 9 8 8 7 6 5 5 4 4
8 7 4 3 6 8 7 4 4 5 5 5 4 4 5 5 6 6 7 8 8 9 11 13 12 12 12 11 10 10 11 11 11 11 11 10 9 8 6 5 6 5 5
8 8 5 4 7 6 4 4 4 4 4 4 4 4 4 4 5 6 6 7 7 8 9 11 12 12 13 12 12 11 12 12 11 11 11 11 10 9 8 7 7 7 7
8 8 6 6 7 5 4 4 5 4 3 3 5 5 4 4 4 5 5 6 6 7 8 9 9 10 12 12 12 12 12 12 12 12 12 12 11 11 10 9 9 9 8
8 7 5 5 4 4 4 4 4 5 3 2 4 4 4 5 5 4 4 5 5 6 7 8 8 8 9 11 11 12 12 12 12 12 12 12 12 12 11 11 11 10 10
7 6 5 4 4 4 4 4 4 3 1 1 2 3 2 4 4 4 4 3 4 5 5 6 6 7 8 8 10 11 12 11 11 12 11 11 11 12 12 12 11 10 10
7 6 6 5 4 3 3 3 3 4 1 1 1 3 3 1 1 3 4 4 4 3 3 5 6 6 6 7 8 10 11 11 11 11 11 11 12 12 12 11 11 10 9
5 6 6 5 4 3 3 2 2 2 3 1 1 1 2 3 2 1 3 3 4 4 3 3 4 5 6 6 7 9 10 11 10 10 10 11 12 11 11 11 10 9 9
3 5 6 5 4 3 3 2 3 3 2 2 1 1 2 2 2 3 0 3 3 3 2 2 2 3 4 5 5 6 8 9 10 10 10 11 11 11 11 11 11 10 9
1 3 5 5 4 3 3 2 2 3 2 3 2 2 2 2 1 2 2 1 1 2 2 2 2 2 2 3 3 5 6 7 8 8 9 10 10 11 10 10 10 10 9
1 0 3 3 3 3 3 3 3 2 2 2 2 1 1 1 2 2 3 1 0 2 2 2 2 3 2 2 2 3 4 5 6 6 7 8 9 9 9 9 9 9 9
2 2 3 3 3 4 4 4 3 2 2 2 3 2 2 1 1 2 3 3 1 2 2 3 3 3 2 2 2 2 2 2 3 4 5 6 6 7 7 7 7 7 7
3 4 4 3 3 3 3 4 2 2 2 2 2 2 2 1 1 1 2 3 4 1 1 3 2 3 3 2 2 2 2 2 2 2 3 4 5 5 5 5 6 6 6
3 4 4 3 3 3 3 3 2 2 3 2 1 3 2 1 1 2 2 2 2 3 1 2 2 2 2 2 3 2 3 3 3 2 2 3 4 4 5 5 5 5 5
4 5 4 4 3 3 3 3 2 3 3 2 2 2 1 1 2 1 2 2 2 3 2 1 2 2 2 2 3 3 3 3 3 3 3 3 3 4 4 5 5 5 5
4 5 5 4 3 3 3 3 3 2 3 2 1 2 1 2 2 2 2 2 1 2 3 1 2 2 2 2 2 2 3 3 3 4 4 5 5 5 4 5 5 5 5
4 4 5 4 4 3 3 3 3 3 3 2 2 2 1 2 2 1 2 2 1 2 2 2 1 2 2 2 2 3 3 4 4 5 5 5 5 5 5 6 5 5 5
4 4 4 4 4 4 3 3 3 3 2 2 2 2 2 3 2 2 2 1 2 2 2 2 1 2 2 2 2 2 3 3 3 5 5 5 5 6 6 6 6 6 6
4 4 4 3 3 3 3 4 3 4 3 2 1 1 2 2 3 3 2 2 2 2 2 1 1 1 2 2 2 2 2 3 3 3 3 4 5 5 6 7 6 6 6
4 4 4 4 3 1 4 6 6 4 3 3 2 1 1 2 2 2 3 4 5 3 2 1 1 0 2 2 1 1 1 2 3 3 2 3 3 3 5 6 6 7 8
4 4 3 3 3 2 5 6 7 4 3 2 2 1 1 2 2 1 3 4 2 2 3 4 2 2 2 2 1 1 1 1 2 3 2 3 3 3 5 7 8 8 9
4 3 3 3 2 2 4 6 7 4 3 2 2 2 2 0 1 2 2 2 2 2 1 2 2 2 1 1 1 1 2 2 2 2 2 1 3 3 4 6 8 9 10
4 3 3 3 3 1 3 6 7 4 3 1 1 2 2 1 1 3 3 2 2 3 4 4 3 3 4 4 3 2 2 2 2 3 2 1 3 3 3 3 7 9 10
4 4 3 3 3 2 2 5 7 4 3 2 1 1 2 2 3 4 4 3 2 1 2 4 5 6 6 7 6 3 1 1 1 2 3 1 2 3 3 3 4 8 9
Wind_Direction
112 106 97 87 82 84 87 81 77 77 75 72 77 81 78 75 70 65 64 65 62 61 61 64 66 66 63 60 57 55 53 52 46 44 46 48 43 42 45 50 56 60 65
112 102 97 88 82 85 89 87 85 79 72 73 70 77 78 78 74 70 65 61 61 58 57 64 64 63 63 61 55 51 49 46 45 44 43 47 47 44 41 47 55 56 57
106 102 91 82 85 91 90 86 76 74 71 67 60 63 72 73 78 73 69 64 58 55 55 62 64 61 60 59 55 52 49 46 45 45 45 48 49 43 41 54 64 64 62
103 98 91 86 94 96 93 88 80 76 68 65 63 55 57 64 68 70 69 64 59 54 55 60 63 60 58 55 51 49 47 46 49 50 49 49 46 42 48 60 72 71 72
99 99 95 95 99 91 84 93 78 87 82 71 70 60 46 48 55 65 62 62 61 58 57 58 60 59 58 54 52 49 48 49 54 56 54 47 44 44 54 68 75 74 77
95 98 95 92 95 85 76 83 86 74 81 82 79 62 42 36 47 49 51 58 60 61 61 57 55 50 51 51 48 48 50 52 56 57 55 50 46 48 59 71 76 74 73
94 99 98 93 91 95 99 102 96 82 73 82 77 54 29 31 38 33 41 47 47 55 65 60 58 52 47 45 43 46 48 50 54 54 53 50 49 52 63 73 74 71 68
89 104 106 106 102 100 91 93 102 98 74 84 107 94 43 13 13 21 23 36 35 46 55 58 59 58 53 48 42 42 42 45 49 50 52 52 51 55 62 67 69 68 65
85 97 107 108 104 109 116 112 119 122 120 14 97 134 132 178 330 352 10 17 18 29 35 49 57 56 56 55 48 42 41 42 47 48 50 52 53 54 57 61 62 62 63
84 93 102 111 110 109 120 123 114 115 125 84 16 51 137 152 144 12 344 352 9 22 12 39 46 50 53 56 52 47 45 42 45 48 50 53 52 53 55 55 56 56 56
77 90 101 108 108 104 112 101 93 88 105 120 107 76 72 69 96 131 279 332 352 348 350 8 28 36 45 53 52 50 48 44 44 48 49 50 50 51 51 51 51 51 50
45 78 101 106 110 107 110 115 111 103 97 95 93 94 117 119 138 132 153 240 310 314 330 355 11 14 24 42 47 52 50 45 44 46 48 47 46 45 45 45 44 43 44
115 150 110 110 107 115 115 110 107 102 103 99 100 91 95 125 149 139 132 155 282 313 334 333 341 359 5 23 25 37 41 45 44 44 46 45 42 39 37 35 35 35 34
186 155 125 122 120 118 108 99 96 102 102 104 95 93 84 64 109 136 147 140 87 358 349 316 321 341 338 336 344 17 21 34 36 39 41 41 39 34 31 27 26 25 22
164 141 132 128 118 112 107 103 97 94 101 101 96 93 85 52 74 93 120 140 141 127 308 302 311 319 326 313 323 343 336 348 359 17 25 24 21 20 21 20 17 14 10
151 140 142 138 126 109 106 108 104 99 96 79 93 90 73 47 68 71 94 105 127 146 184 270 270 292 343 341 332 326 317 324 314 310 341 356 358 359 359 356 357 357 355
153 149 154 148 144 137 123 117 119 116 107 83 71 90 71 62 63 50 66 78 90 121 145 287 306 323 351 347 351 341 328 328 314 312 307 313 321 331 339 339 337 337 336
154 151 150 150 157 154 138 133 137 133 138 139 128 100 64 79 64 47 68 74 84 117 139 166 322 329 318 320 342 352 347 338 320 317 309 300 305 312 318 324 322 321 320
143 142 145 154 164 160 147 151 148 145 146 154 150 143 150 112 86 63 81 82 75 84 101 125 317 323 326 347 358 353 353 350 342 334 325 312 305 310 315 317 317 314 312
139 142 146 153 158 151 145 144 137 131 131 130 141 155 163 156 165 160 122 116 101 82 75 82 29 343 331 334 12 352 341 338 335 350 352 346 336 335 332 330 325 324 322
146 145 136 126 132 142 150 146 142 140 135 122 101 120 136 142 165 162 146 156 131 111 93 84 35 2 344 351 337 318 320 318 316 347 342 348 352 351 345 339 334 333 331
148 142 145 141 134 150 144 144 142 139 137 137 131 67 81 69 67 93 118 136 143 146 161 154 186 242 280 276 295 324 330 351 322 331 345 325 356 337 333 334 331 331 329
156 146 158 155 157 173 151 145 145 141 133 142 146 126 95 64 66 72 62 68 77 113 154 160 167 222 238 247 260 329 305 278 266 303 348 319 334 325 323 340 346 344 339
156 157 167 170 160 177 157 151 143 131 123 137 154 155 139 61 98 121 97 68 35 15 63 143 186 230 239 246 212 229 244 287 300 325 23 316 321 315 322 328 348 353 351
155 155 152 153 156 192 154 151 141 123 113 117 119 119 132 122 89 123 115 101 44 6 39 64 76 51 35 37 55 55 24 24 335 319 348 340 313 312 311 317 342 350 348
155 147 132 138 151 168 150 149 145 130 123 110 67 51 80 101 97 110 121 118 96 359 27 40 42 33 33 35 38 53 67 31 327 311 326 347 322 342 327 318 333 341 345
Height
1553 1553 1553 1552 1552 1552 1551 1551 1551 1551 1550 1550 1550 1550 1550 1550 1549 1549 1548 1547 1546 1545 1544 1544 1543 1542 1542 1541 1541 1540 1539 1538 1537 1536 1535 1534 1534 1534 1533 1533 1533 1533 1532
1554 1554 1554 1554 1553 1553 1553 1552 1552 1552 1552 1552 1551 1551 1551 1551 1551 1550 1549 1549 1548 1547 1546 1545 1544 1543 1542 1542 1541 1540 1539 1538 1537 1535 1534 1533 1532 1532 1532 1532 1532 1531 1531
1556 1555 1555 1555 1555 1554 1554 1554 1553 1553 1553 1553 1552 1552 1552 1552 1552 1551 1551 1550 1549 1548 1547 1546 1545 1544 1543 1542 1541 1540 1539 1537 1536 1534 1533 1532 1531 1530 1530 1530 1530 1530 1531
1557 1557 1556 1556 1556 1556 1556 1555 1555 1554 1554 1554 1553 1554 1554 1554 1553 1553 1552 1551 1550 1549 1548 1547 1546 1545 1544 1543 1542 1541 1539 1537 1536 1534 1533 1531 1529 1528 1527 1527 1528 1529 1530
1558 1558 1558 1557 1557 1557 1557 1556 1556 1556 1555 1555 1555 1555 1555 1555 1555 1554 1553 1553 1552 1551 1550 1549 1548 1547 1545 1544 1543 1541 1539 1537 1536 1535 1533 1532 1529 1526 1524 1524 1526 1528 1529
1559 1559 1559 1558 1558 1558 1558 1557 1557 1557 1557 1556 1556 1557 1557 1557 1556 1556 1555 1554 1553 1552 1551 1550 1549 1548 1546 1545 1544 1543 1541 1539 1537 1536 1534 1532 1529 1525 1521 1522 1525 1528 1529
1560 1560 1560 1559 1559 1559 1559 1559 1559 1558 1558 1558 1558 1558 1559 1559 1558 1558 1557 1556 1555 1554 1552 1551 1550 1549 1548 1546 1545 1544 1543 1541 1539 1538 1536 1534 1531 1527 1524 1524 1527 1529 1530
1560 1561 1561 1560 1560 1560 1560 1560 1560 1559 1560 1560 1560 1559 1560 1561 1559 1559 1558 1557 1556 1555 1554 1553 1551 1550 1549 1548 1547 1545 1544 1542 1541 1539 1538 1536 1533 1531 1529 1529 1529 1530 1531
1561 1561 1561 1561 1561 1561 1561 1561 1561 1560 1560 1560 1560 1560 1560 1560 1560 1560 1559 1558 1557 1556 1555 1554 1553 1552 1550 1549 1548 1547 1545 1544 1542 1541 1540 1538 1536 1534 1533 1532 1532 1532 1532
1562 1562 1562 1562 1562 1562 1561 1561 1561 1561 1561 1561 1561 1560 1561 1560 1560 1560 1560 1559 1558 1557 1556 1555 1554 1553 1552 1550 1549 1548 1546 1545 1544 1543 1541 1540 1538 1537 1536 1535 1534 1533 1533
1563 1563 1562 1562 1562 1562 1562 1562 1562 1562 1562 1561 1561 1561 1560 1560 1560 1560 1560 1560 1559 1558 1557 1556 1555 1554 1553 1551 1550 1549 1548 1546 1545 1544 1543 1541 1540 1539 1537 1536 1535 1534 1533
1563 1563 1563 1563 1563 1563 1563 1563 1562 1562 1562 1562 1561 1561 1561 1560 1560 1560 1560 1559 1559 1559 1558 1557 1556 1555 1554 1552 1551 1550 1549 1547 1546 1545 1543 1542 1541 1540 1538 1537 1536 1534 1534
1563 1563 1564 1563 1563 1563 1563 1563 1563 1562 1562 1562 1562 1561 1561 1560 1560 1560 1560 1559 1559 1559 1558 1558 1557 1555 1554 1553 1552 1551 1549 1548 1547 1545 1544 1543 1541 1540 1539 1537 1536 1535 1534
1564 1564 1564 1564 1564 1564 1563 1563 1563 1563 1563 1562 1562 1562 1561 1561 1561 1560 1560 1560 1559 1559 1558 1558 1557 1556 1555 1554 1553 1551 1550 1549 1547 1546 1544 1543 1542 1541 1539 1538 1537 1535 1534
1564 1564 1564 1564 1564 1564 1564 1564 1563 1563 1563 1562 1562 1562 1562 1561 1561 1560 1560 1560 1560 1559 1558 1558 1557 1556 1555 1554 1553 1552 1550 1549 1548 1546 1545 1543 1542 1541 1539 1538 1536 1535 1534
1564 1564 1564 1564 1564 1564 1564 1564 1563 1563 1563 1563 1562 1562 1562 1561 1561 1560 1560 1559 1559 1559 1558 1558 1557 1556 1555 1554 1553 1552 1551 1549 1548 1546 1545 1543 1542 1540 1539 1537 1536 1534 1533
1563 1564 1564 1564 1564 1564 1564 1564 1564 1563 1563 1563 1563 1562 1562 1561 1561 1560 1560 1559 1559 1559 1558 1557 1557 1556 1555 1554 1553 1552 1550 1549 1548 1546 1545 1543 1541 1540 1538 1536 1535 1533 1531
1563 1563 1564 1564 1564 1564 1564 1564 1564 1563 1563 1563 1563 1562 1562 1561 1561 1560 1560 1559 1559 1558 1558 1557 1556 1555 1554 1553 1552 1551 1550 1549 1547 1546 1544 1542 1541 1539 1537 1535 1533 1532 1530
1562 1563 1563 1563 1563 1563 1563 1563 1563 1563 1563 1562 1562 1562 1562 1561 1560 1560 1559 1559 1558 1558 1557 1557 1556 1555 1554 1553 1551 1550 1549 1548 1546 1545 1543 1541 1540 1538 1536 1534 1532 1530 1528
1561 1561 1562 1562 1562 1563 1563 1563 1562 1562 1562 1562 1561 1561 1561 1560 1560 1559 1559 1558 1558 1557 1557 1556 1555 1554 1553 1552 1550 1549 1547 1546 1545 1543 1542 1540 1538 1536 1534 1532 1530 1529 1527
1559 1560 1561 1561 1561 1561 1562 1562 1562 1561 1561 1561 1561 1560 1560 1560 1559 1558 1558 1557 1557 1556 1556 1555 1554 1553 1552 1550 1549 1548 1546 1545 1543 1541 1540 1538 1536 1534 1533 1531 1529 1527 1525
1558 1559 1559 1559 1560 1560 1560 1560 1560 1560 1560 1560 1560 1559 1559 1558 1558 1558 1557 1557 1556 1555 1554 1554 1552 1551 1550 1549 1548 1546 1544 1542 1540 1540 1538 1536 1534 1532 1530 1529 1527 1524 1522
1556 1557 1557 1558 1558 1558 1559 1559 1559 1559 1559 1559 1559 1558 1558 1557 1557 1557 1556 1556 1555 1554 1554 1553 1551 1550 1549 1548 1546 1544 1543 1541 1539 1537 1536 1533 1532 1530 1528 1526 1524 1522 1520
1553 1554 1555 1556 1556 1557 1557 1557 1557 1557 1557 1557 1557 1556 1556 1556 1555 1555 1555 1554 1553 1553 1552 1551 1550 1549 1548 1546 1545 1543 1541 1539 1538 1536 1534 1531 1529 1527 1526 1524 1522 1519 1517
1551 1552 1553 1553 1554 1554 1555 1555 1555 1555 1555 1555 1555 1554 1554 1554 1554 1553 1553 1552 1551 1551 1550 1549 1548 1547 1546 1544 1543 1541 1539 1537 1534 1533 1531 1529 1526 1524 1522 1521 1519 1516 1514
1549 1550 1551 1551 1552 1552 1552 1553 1553 1553 1553 1553 1553 1553 1552 1552 1552 1551 1551 1550 1549 1549 1548 1547 1546 1545 1544 1542 1540 1538 1536 1534 1532 1530 1528 1527 1524 1522 1519 1518 1516 1514 1511